This is the latest recevied weather packets stored in our database for station/object KJ4YLO. If no packets are shown the sender has not sent any weather packets the latest 1 day(s).
| Time | Temp. | Humidity | Pressure | Rain* | Wind** | Luminosity | Snow |
|---|---|---|---|---|---|---|---|
| 1778023292 | 22.78° C | 43% | 1015.1 hPa | 0 mm | 0 m/s | 33 W/m² | - |
| 1778022989 | 22.78° C | 43% | 1014.8 hPa | 0 mm | 0 m/s | 32 W/m² | - |
| 1778022687 | 23.33° C | 41% | 1015.1 hPa | 0 mm | 0 m/s | 34 W/m² | - |
| 1778022385 | 23.33° C | 41% | 1014.8 hPa | 0 mm | 0 m/s | 26 W/m² | - |
| 1778022081 | 23.89° C | 40% | 1015.1 hPa | 0 mm | 0 m/s | 26 W/m² | - |
| 1778021778 | 23.89° C | 40% | 1015.1 hPa | 0 mm | 0 m/s | 30 W/m² | - |
| 1778021474 | 24.44° C | 37% | 1014.8 hPa | 0 mm | 0.45 m/s, 317° | 58 W/m² | - |
| 1778021171 | 23.89° C | 37% | 1014.8 hPa | 0 mm | 0.45 m/s, 32° | 43 W/m² | - |
| 1778020868 | 24.44° C | 37% | 1014.8 hPa | 0 mm | 0 m/s | 54 W/m² | - |
| 1778020565 | 25° C | 36% | 1014.8 hPa | 0 mm | 0 m/s | 48 W/m² | - |
| 1778020261 | 25° C | 36% | 1014.8 hPa | 0 mm | 0.45 m/s, 32° | 71 W/m² | - |
| 1778019958 | 26.11° C | 36% | 1014.8 hPa | 0 mm | 0 m/s | 145 W/m² | - |
| 1778019654 | 26.11° C | 31% | 1014.8 hPa | 0 mm | 0 m/s | 191 W/m² | - |
| 1778019351 | 26.11° C | 34% | 1014.8 hPa | 0 mm | 0.45 m/s, 326° | 232 W/m² | - |
| 1778019047 | 26.67° C | 31% | 1014.8 hPa | 0 mm | 0 m/s | 235 W/m² | - |
| 1778018745 | 26.11° C | 30% | 1014.8 hPa | 0 mm | 0.45 m/s, 271° | 233 W/m² | - |
| 1778018443 | 26.11° C | 33% | 1014.8 hPa | 0 mm | 0.89 m/s, 14° | 264 W/m² | - |
| 1778018141 | 26.11° C | 32% | 1014.8 hPa | 0 mm | 0 m/s | 278 W/m² | - |
| 1778017838 | 26.11° C | 35% | 1014.8 hPa | 0 mm | 0.45 m/s, 310° | 301 W/m² | - |
| 1778017536 | 26.11° C | 35% | 1014.8 hPa | 0 mm | 0.45 m/s, 14° | 268 W/m² | - |
| 1778017233 | 26.11° C | 33% | 1015.1 hPa | 0 mm | 1.34 m/s, 162° | 320 W/m² | - |
| 1778016931 | 26.67° C | 33% | 1015.1 hPa | 0 mm | 0.45 m/s, 290° | 345 W/m² | - |
| 1778016626 | 26.11° C | 34% | 1015.1 hPa | 0 mm | 0.45 m/s, 309° | 402 W/m² | - |
| 1778016323 | 26.11° C | 34% | 1014.8 hPa | 0 mm | 1.34 m/s, 191° | 380 W/m² | - |
| 1778016020 | 26.11° C | 32% | 1014.8 hPa | 0 mm | 1.34 m/s, 171° | 386 W/m² | - |
* Rain latest hour (hover to see other rain measurements)
** Current wind speed in m/s (hover to see current wind gust speed)